Location: Newark
(34.0131°N, 4.3314°W)
Time: 08:25:06
(UTC+00:00)

A-11 Canister half - Pass Details

Date: 27 October 2019
Orbit: 1514 x 1685 km, 47.2° (Epoch: 20 November)

Event Time Altitude Azimuth Distance (km) Brightness Sun altitude
Rises 01:02:29 0° 253° (WSW) 4,928 - -64.5°
Reaches altitude 10° 01:05:47 10° 257° (WSW) 3,932 - -64.1°
Maximum altitude 01:15:39 56° 334° (NNW) 1,906 - -62.7°
Exits shadow 01:23:58 15° 49° (NE) 3,449 11.1 -61.5°
Drops below altitude 10° 01:25:16 10° 52° (NE) 3,828 11.4 -61.3°
Sets 01:28:27 0° 57° (ENE) 4,790 12.0 -60.9°
